Weather History for Campo, CA

Change the Weather History Date:

Wednesday, May 16, 2012

  Actual Average Record
Temperature  
Mean Temperature 67 °F 61 °F  
Max Temperature 94 °F 80 °F 97 °F (1997)
Min Temperature 40 °F 42 °F 30 °F (1990)
Degree Days  
Heating Degree Days 0 5  
Month to date heating degree days 104 95  
Since 1 July heating degree days 3213 2863  
Cooling Degree Days 2 1  
Month to date cooling degree days 3 11  
Year to date cooling degree days 9 14  
Growing Degree Days 18 (Base 50)    
Moisture  
Dew Point 42 °F    
Average Humidity 48    
Maximum Humidity 83    
Minimum Humidity 12    
Precipitation  
Precipitation 0.00 in 0.01 in 0.43 in (1953)
Month to date precipitation 0.00 0.14  
Year to date precipitation 6.05 10.00  
Since 1 July precipitation 11.29 15.58  
Snow  
Snow 0.00 in - - ()
Month to date snowfall 0.0  
Year to date snowfall 0.0  
Since 1 July snowfall 0.0  
Snow Depth 0.00 in    
Sea Level Pressure  
Sea Level Pressure 29.80 in    
Wind  
Wind Speed 8 mph (NNW)    
Max Wind Speed 20 mph    
Max Gust Speed 24 mph    
T = Trace of Precipitation, MM = Missing Value Source: NWS Daily Summary

Daily Weather History Graph

Daily Weather History Graph

Search for Another Location

Airport:

Trip Planner

Search our weather history database for the weather conditions in past years. The results will help you decide how hot, cold, wet, or windy it might be!

Date:

Astronomy

May. 16, 2012 Rise Set
Actual Time 5:46 AM PDT 7:38 PM PDT
Civil Twilight 5:19 AM PDT 8:05 PM PDT
Nautical Twilight 4:46 AM PDT 8:38 PM PDT
Astronomical Twilight 4:11 AM PDT 9:13 PM PDT
Moon 3:06 AM PDT (5/16) 4:08 PM PDT (5/16)
Length of Visible Light 14h 46m
Length of Day
13h 52m
Waning Crescent, 15% of the Moon is Illuminated
May 16
Waning Crescent
May 20
New
May 28
First Quarter
Jun 4
Full
Jun 11
Last Quarter

Hourly Weather History & Observations

Time (PDT) Temp. Windchill Dew Point Humidity Pressure Visibility Wind Dir Wind Speed Gust Speed Precip Events Conditions
12:52 AM 46.9 °F - 41.0 °F 80% 29.84 in - NE 4.6 mph - N/A   Unknown
1:52 AM 45.0 °F 42.6 °F 39.9 °F 82% 29.83 in - ENE 4.6 mph - N/A   Unknown
2:52 AM 45.0 °F - 39.0 °F 80% 29.83 in - Calm Calm - N/A   Unknown
3:52 AM 44.1 °F 41.5 °F 37.9 °F 79% 29.82 in - NE 4.6 mph - N/A   Unknown
4:52 AM 45.0 °F 42.6 °F 39.0 °F 80% 29.82 in - ENE 4.6 mph - N/A   Unknown
5:52 AM 44.1 °F 41.5 °F 37.9 °F 79% 29.83 in - NNE 4.6 mph - N/A   Unknown
6:52 AM 48.0 °F - 39.0 °F 71% 29.85 in - NE 5.8 mph - N/A   Unknown
7:52 AM 61.0 °F - 43.0 °F 52% 29.84 in - Calm Calm - N/A   Unknown
8:52 AM 71.1 °F - 39.0 °F 31% 29.84 in - Calm Calm - N/A   Unknown
9:52 AM 79.0 °F - 37.0 °F 22% 29.83 in - SSW 4.6 mph - N/A   Unknown
10:52 AM 84.9 °F - 39.9 °F 20% 29.82 in - SW 12.7 mph - N/A   Unknown
11:52 AM 87.1 °F - 45.0 °F 23% 29.81 in - SW 13.8 mph - N/A   Unknown
12:52 PM 91.9 °F - 43.0 °F 18% 29.79 in - Variable 4.6 mph - N/A   Unknown
1:52 PM 93.9 °F - 32.0 °F 11% 29.77 in - WNW 17.3 mph 21.9 mph N/A   Unknown
2:52 PM 93.0 °F - 37.0 °F 14% 29.76 in - WNW 16.1 mph 24.2 mph N/A   Unknown
3:52 PM 91.0 °F - 34.0 °F 13% 29.75 in - WNW 15.0 mph - N/A   Unknown
4:52 PM 90.0 °F - 34.0 °F 14% 29.75 in - WNW 16.1 mph 19.6 mph N/A   Unknown
5:52 PM 87.1 °F - 48.0 °F 26% 29.76 in - West 9.2 mph 17.3 mph N/A   Unknown
6:52 PM 77.0 °F - 55.0 °F 47% 29.78 in - SW 8.1 mph - N/A   Unknown
7:52 PM 69.1 °F - 53.1 °F 57% 29.79 in - SSW 5.8 mph - N/A   Unknown
8:52 PM 60.1 °F - 50.0 °F 69% 29.80 in - Calm Calm - N/A   Unknown
9:52 PM 60.1 °F - 48.9 °F 67% 29.81 in - NNE 3.5 mph - N/A   Unknown
10:52 PM 57.0 °F - 46.9 °F 69% 29.80 in - NE 5.8 mph - N/A   Unknown
11:52 PM 54.0 °F - 46.0 °F 75% 29.79 in - ENE 8.1 mph - N/A   Unknown